Fort Morgan, CO

2:55 AM MDT on July 23, 2017 (GMT -0600)
Fort Morgan

Weather History for KFMM - August, 2013

Change the Weather History Date:

Friday, August 2, 2013

  Actual Average (KAKO) Record (KAKO)
Temperature  
Mean Temperature 67 °F -  
Max Temperature 75 °F 85 °F 109 °F (1938)
Min Temperature 59 °F 58 °F 52 °F (1974)
Cooling Degree Days 2    
Growing Degree Days 17 (Base 50)    
Moisture  
Dew Point 56 °F    
Average Humidity 73    
Maximum Humidity 81    
Minimum Humidity 53    
Precipitation  
Precipitation 0.00 in - - ()
Sea Level Pressure  
Sea Level Pressure 30.02 in    
Wind  
Wind Speed 8 mph (NE)    
Max Wind Speed 28 mph    
Max Gust Speed 33 mph    
Visibility 10 miles    
Events Thunderstorm    
Averages and records for this station are not official NWS values.
T = Trace of Precipitation, MM = Missing Value Source: NWS Daily Summary

Daily Weather History Graph

Daily Weather History Graph

Search for Another Location

Airport or City:

Trip Planner

Search our weather history database for the weather conditions in past years. The results will help you decide how hot, cold, wet, or windy it might be!

Date:

Astronomy

Aug. 02, 2013 Rise Set
Actual Time 5:54 AM MDT 8:08 PM MDT
Civil Twilight 5:23 AM MDT 8:38 PM MDT
Nautical Twilight 4:46 AM MDT 9:15 PM MDT
Astronomical Twilight 4:05 AM MDT 9:56 PM MDT
Moon 2:16 AM MDT (8/2) 5:07 PM MDT (8/2)
Length of Visible Light 15h 14m
Length of Day
14h 14m
Waning Crescent, 15% of the Moon is Illuminated
Aug 2
Waning Crescent
Aug 6
New
Aug 14
First Quarter
Aug 20
Full
Aug 28
Last Quarter

Hourly Weather History & Observations

Time (MDT) Temp. Dew Point Humidity Pressure Visibility Wind Dir Wind Speed Gust Speed Precip Events Conditions
12:15 AM 64.4 °F 51.8 °F 64% 29.97 in 10.0 mi NNW 9.2 mph - N/A   Clear
12:55 AM 60.6 °F 52.0 °F 73% 29.99 in 10.0 mi East 12.7 mph - N/A   Clear
1:15 AM 59.2 °F 52.7 °F 79% 29.99 in 10.0 mi ENE 6.9 mph - N/A   Clear
1:35 AM 59.7 °F 51.8 °F 75% 29.99 in 10.0 mi NNE 4.6 mph - N/A   Clear
1:55 AM 61.9 °F 52.2 °F 70% 29.99 in 10.0 mi North 9.2 mph - N/A   Clear
2:35 AM 61.2 °F 53.6 °F 76% 29.99 in 10.0 mi ENE 6.9 mph - N/A   Clear
2:55 AM 61.0 °F 54.0 °F 78% 29.99 in 10.0 mi East 4.6 mph - N/A   Clear
3:15 AM 61.9 °F 54.7 °F 77% 29.99 in 10.0 mi East 5.8 mph - N/A   Clear
3:35 AM 61.2 °F 54.5 °F 79% 29.99 in 10.0 mi NNE 4.6 mph - N/A   Clear
3:55 AM 61.7 °F 54.9 °F 78% 29.99 in 10.0 mi North 5.8 mph - N/A   Clear
4:15 AM 61.7 °F 54.9 °F 78% 29.98 in 10.0 mi North 3.5 mph - N/A   Clear
4:35 AM 61.0 °F 54.9 °F 80% 29.98 in 10.0 mi NNW 4.6 mph - N/A   Clear
4:55 AM 60.8 °F 54.5 °F 80% 29.98 in 10.0 mi North 3.5 mph - N/A   Clear
5:15 AM 60.6 °F 54.3 °F 80% 29.98 in 10.0 mi North 8.1 mph - N/A   Clear
5:35 AM 60.8 °F 53.8 °F 78% 29.98 in 10.0 mi North 8.1 mph - N/A   Clear
5:55 AM 61.2 °F 54.0 °F 77% 29.98 in 10.0 mi NW 5.8 mph - N/A   Clear
6:15 AM 61.0 °F 54.1 °F 78% 29.99 in 10.0 mi NNW 8.1 mph - N/A   Clear
6:35 AM 61.2 °F 54.1 °F 78% 30.00 in 10.0 mi North 5.8 mph - N/A   Clear
6:55 AM 63.9 °F 55.6 °F 74% 30.00 in 10.0 mi SSW 4.6 mph - N/A   Clear
7:15 AM 63.3 °F 55.9 °F 77% 30.01 in 10.0 mi South 3.5 mph - N/A   Scattered Clouds
7:35 AM 65.1 °F 56.1 °F 73% 30.02 in 10.0 mi Calm Calm - N/A   Scattered Clouds
7:55 AM 65.5 °F 55.9 °F 71% 30.02 in 10.0 mi SE 3.5 mph - N/A   Clear
8:15 AM 66.2 °F 56.5 °F 71% 30.02 in 10.0 mi SE 6.9 mph - N/A   Clear
8:35 AM 67.5 °F 56.1 °F 67% 30.02 in 10.0 mi Calm Calm - N/A   Clear
8:55 AM 68.9 °F 56.7 °F 65% 30.03 in 10.0 mi Calm Calm - N/A   Clear
9:15 AM 71.1 °F 57.4 °F 62% 30.03 in 10.0 mi SSW 3.5 mph - N/A   Clear
9:35 AM 75.0 °F 57.0 °F 53% 30.03 in 10.0 mi WSW 6.9 mph - N/A   Clear
9:55 AM - - N/A% 30.03 in 10.0 mi WSW 4.6 mph - N/A   Clear
10:15 AM - - N/A% 30.02 in 10.0 mi WSW 5.8 mph - N/A   Clear
10:35 AM - - N/A% 30.02 in 10.0 mi WSW 3.5 mph - N/A   Clear
10:55 AM - - N/A% 30.02 in 10.0 mi West 4.6 mph - N/A   Clear
11:15 AM - - N/A% 30.02 in 10.0 mi WSW 6.9 mph - N/A   Clear
11:35 AM - - N/A% 30.02 in 10.0 mi WSW 6.9 mph - N/A   Clear
11:55 AM - - N/A% 30.01 in 10.0 mi WSW 8.1 mph - N/A   Clear
12:15 PM - - N/A% 30.01 in 10.0 mi SW 6.9 mph - N/A   Clear
12:35 PM - - N/A% 30.01 in 10.0 mi WSW 10.4 mph - N/A   Clear
12:55 PM - - N/A% 30.01 in 10.0 mi WSW 10.4 mph - N/A   Clear
1:15 PM - - N/A% 30.00 in 10.0 mi West 5.8 mph - N/A   Clear
1:35 PM - - N/A% 30.01 in 10.0 mi WNW 6.9 mph 17.3 mph N/A   Clear
1:55 PM - - N/A% 30.00 in 10.0 mi NNW 4.6 mph - N/A   Clear
2:15 PM - - N/A% 30.00 in 10.0 mi WNW 5.8 mph 16.1 mph N/A   Clear
2:35 PM - - N/A% 29.99 in 10.0 mi SSE 3.5 mph - N/A   Clear
2:55 PM - - N/A% 29.99 in 10.0 mi South 6.9 mph - N/A   Clear
3:15 PM - - N/A% 29.99 in 10.0 mi WSW 3.5 mph - N/A   Scattered Clouds
3:35 PM - - N/A% 29.98 in 10.0 mi East 11.5 mph 21.9 mph N/A   Scattered Clouds
3:55 PM - - N/A% 29.97 in 10.0 mi East 20.7 mph 25.3 mph N/A   Scattered Clouds
4:15 PM - - N/A% 29.97 in 10.0 mi East 15.0 mph - N/A   Scattered Clouds
4:35 PM - - N/A% 29.98 in 10.0 mi ENE 12.7 mph 19.6 mph N/A Thunderstorm Mostly Cloudy
4:55 PM - - N/A% 29.99 in 10.0 mi ENE 20.7 mph 29.9 mph N/A   Scattered Clouds
5:15 PM - - N/A% 29.99 in 10.0 mi ENE 17.3 mph 23.0 mph N/A   Clear
5:35 PM - - N/A% 29.99 in 10.0 mi ENE 16.1 mph 23.0 mph N/A   Clear
5:55 PM - - N/A% 30.00 in 10.0 mi East 19.6 mph 27.6 mph N/A   Scattered Clouds
6:15 PM - - N/A% 30.01 in 10.0 mi East 19.6 mph 27.6 mph N/A   Clear
6:35 PM - - N/A% 30.01 in 10.0 mi ENE 19.6 mph 27.6 mph N/A   Clear
6:55 PM - - N/A% 30.01 in 10.0 mi East 21.9 mph 27.6 mph N/A   Clear
7:15 PM - - N/A% 30.02 in 10.0 mi East 23.0 mph 31.1 mph N/A   Clear
7:35 PM - - N/A% 30.03 in 10.0 mi East 16.1 mph 23.0 mph N/A   Clear
7:55 PM - - N/A% 30.03 in 10.0 mi East 13.8 mph - N/A   Clear
8:15 PM - - N/A% 30.04 in 10.0 mi East 11.5 mph - N/A   Clear
8:35 PM - - N/A% 30.05 in 10.0 mi East 8.1 mph - N/A   Clear
8:55 PM 72.5 °F 61.3 °F 68% 30.06 in 10.0 mi ENE 6.9 mph - N/A   Clear
9:15 PM 72.0 °F 61.3 °F 69% 30.07 in 10.0 mi East 5.8 mph - N/A   Clear
9:35 PM 71.8 °F 61.5 °F 70% 30.07 in 10.0 mi East 6.9 mph - N/A   Scattered Clouds
9:55 PM 72.7 °F 61.2 °F 67% 30.10 in 10.0 mi East 10.4 mph - N/A   Overcast
10:15 PM 72.7 °F 62.1 °F 69% 30.10 in 10.0 mi NNE 8.1 mph - N/A   Overcast
10:35 PM 71.1 °F 56.8 °F 61% 30.12 in 10.0 mi North 27.6 mph 33.4 mph N/A   Overcast
10:55 PM 69.3 °F 54.3 °F 59% 30.11 in 7.0 mi NE 23.0 mph 28.8 mph N/A Thunderstorm Overcast
11:15 PM 65.5 °F 58.3 °F 77% 30.11 in 10.0 mi East 6.9 mph - N/A   Scattered Clouds
11:35 PM 66.4 °F 60.3 °F 81% 30.11 in 10.0 mi East 9.2 mph - N/A   Clear
11:55 PM 67.6 °F 59.7 °F 76% 30.12 in 10.0 mi ESE 10.4 mph - N/A   Clear